| time (UTC) | temp F | wind direction | speed MPH | gust MPH | rain 1hr in | rain 24hr in | rain mn in | humidity % | barometer mb |
| 20260902091524 | 58 | 70 | 0.0 | 2.0 | 0.00 | 0.00 | 0.00 | 58 | 1006.2 |
| 20260902090024 | 57 | 161 | 1.0 | 3.0 | 0.00 | 0.00 | 0.00 | 57 | 1006.0 |
| 20260902084529 | 58 | 265 | 0.0 | 3.0 | 0.00 | 0.00 | 0.00 | 56 | 1006.0 |
| 20260902083019 | 60 | 350 | 0.0 | 0.0 | 0.00 | 0.00 | 0.00 | 55 | 1005.9 |
| 20260902081518 | 62 | 123 | 0.0 | 3.0 | 0.00 | 0.00 | 0.00 | 53 | 1006.1 |
| 20260902080017 | 60 | 137 | 3.0 | 5.0 | 0.00 | 0.00 | 0.00 | 56 | 1006.2 |
| 20260902074513 | 60 | 140 | 2.0 | 3.0 | 0.00 | 0.00 | 0.00 | 54 | 1006.0 |
| 20260902073011 | 62 | 44 | 0.0 | 2.0 | 0.00 | 0.00 | 0.00 | 53 | 1005.9 |
| 20260902071512 | 64 | 203 | 3.0 | 5.0 | 0.00 | 0.00 | 0.00 | 50 | 1006.1 |
| 20260902070007 | 63 | 154 | 3.0 | 4.0 | 0.00 | 0.00 | 0.00 | 52 | 1006.1 |
| 20260902064520 | 64 | 118 | 0.0 | 1.0 | 0.00 | 0.00 | 0.00 | 51 | 1005.9 |
| 20260902063006 | 65 | 142 | 2.0 | 6.0 | 0.00 | 0.00 | 0.00 | 49 | 1005.8 |
| 20260902061600 | 66 | 140 | 5.0 | 8.0 | 0.00 | 0.00 | 0.00 | 48 | 1006.0 |
| 20260902060109 | 66 | 152 | 3.0 | 6.0 | 0.00 | 0.00 | 0.00 | 47 | 1006.0 |
| 20260902054609 | 65 | 123 | 3.0 | 6.0 | 0.00 | 0.00 | 0.00 | 50 | 1005.8 |
| 20260902053059 | 65 | 122 | 2.0 | 4.0 | 0.00 | 0.00 | 0.00 | 49 | 1005.6 |
| 20260902051600 | 67 | 261 | 0.0 | 1.0 | 0.00 | 0.00 | 0.00 | 45 | 1005.8 |
| 20260902050057 | 67 | 269 | 0.0 | 2.0 | 0.00 | 0.00 | 0.00 | 44 | 1005.9 |
| 20260902044556 | 69 | 123 | 0.0 | 1.0 | 0.00 | 0.00 | 0.00 | 43 | 1005.6 |
| 20260902043109 | 69 | 140 | 0.0 | 1.0 | 0.00 | 0.00 | 0.00 | 43 | 1005.6 |
| 20260902041605 | 71 | 140 | 0.0 | 0.0 | 0.00 | 0.00 | 0.00 | 40 | 1005.6 |
| 20260902040057 | 72 | 140 | 0.0 | 3.0 | 0.00 | 0.00 | 0.00 | 40 | 1005.5 |
| 20260902034606 | 72 | 156 | 2.0 | 4.0 | 0.00 | 0.00 | 0.00 | 39 | 1005.4 |
| 20260902033055 | 73 | 136 | 0.0 | 2.0 | 0.00 | 0.00 | 0.00 | 39 | 1005.0 |
| 20260902031555 | 74 | 199 | 0.0 | 1.0 | 0.00 | 0.00 | 0.00 | 38 | 1004.8 |
| 20260902030053 | 73 | 199 | 0.0 | 4.0 | 0.00 | 0.00 | 0.00 | 39 | 1004.6 |
| 20260902024556 | 74 | 336 | 0.0 | 1.0 | 0.00 | 0.00 | 0.00 | 37 | 1004.2 |
| 20260902023054 | 75 | 336 | 0.0 | 3.0 | 0.00 | 0.00 | 0.00 | 37 | 1004.0 |
| 20260902021554 | 77 | 1 | 1.0 | 4.0 | 0.00 | 0.00 | 0.00 | 36 | 1003.9 |
| 20260902020053 | 78 | 326 | 4.0 | 8.0 | 0.00 | 0.00 | 0.00 | 35 | 1003.8 |
| 20260902014555 | 80 | 4 | 7.0 | 12.0 | 0.00 | 0.00 | 0.00 | 34 | 1003.8 |
| 20260902013056 | 81 | 360 | 6.0 | 12.0 | 0.00 | 0.00 | 0.00 | 33 | 1003.6 |
| 20260902011552 | 83 | 356 | 3.0 | 6.0 | 0.00 | 0.00 | 0.00 | 32 | 1003.4 |
| 20260902010053 | 84 | 22 | 3.0 | 5.0 | 0.00 | 0.00 | 0.00 | 31 | 1003.3 |
| 20260902004554 | 84 | 321 | 3.0 | 7.0 | 0.00 | 0.00 | 0.00 | 31 | 1003.2 |
| 20260902003124 | 84 | 14 | 5.0 | 7.0 | 0.00 | 0.00 | 0.00 | 30 | 1003.1 |
| 20260902001546 | 83 | 53 | 2.0 | 5.0 | 0.00 | 0.00 | 0.00 | 31 | 1003.3 |
| 20260902000048 | 83 | 17 | 1.0 | 5.0 | 0.00 | 0.00 | 0.00 | 31 | 1003.2 |
| 20260901234546 | 83 | 5 | 1.0 | 5.0 | 0.00 | 0.00 | 0.00 | 31 | 1003.2 |
| 20260901233044 | 84 | 312 | 0.0 | 2.0 | 0.00 | 0.00 | 0.00 | 30 | 1003.2 |
| 20260901231552 | 86 | 159 | 2.0 | 5.0 | 0.00 | 0.00 | 0.00 | 29 | 1003.3 |
| 20260901230043 | 85 | 169 | 2.0 | 5.0 | 0.00 | 0.00 | 0.00 | 30 | 1003.4 |
| 20260901224548 | 84 | 280 | 2.0 | 6.0 | 0.00 | 0.00 | 0.00 | 30 | 1003.3 |
| 20260901223041 | 84 | 272 | 5.0 | 7.0 | 0.00 | 0.00 | 0.00 | 31 | 1003.5 |
| 20260901221543 | 85 | 287 | 2.0 | 5.0 | 0.00 | 0.00 | 0.00 | 30 | 1003.5 |
| 20260901220043 | 83 | 183 | 3.0 | 5.0 | 0.00 | 0.00 | 0.00 | 32 | 1003.6 |
| 20260901214541 | 83 | 5 | 0.0 | 2.0 | 0.00 | 0.00 | 0.00 | 33 | 1003.7 |
| 20260901213038 | 84 | 59 | 5.0 | 8.0 | 0.00 | 0.00 | 0.00 | 32 | 1003.9 |
| 20260901211534 | 84 | 79 | 1.0 | 5.0 | 0.00 | 0.00 | 0.00 | 33 | 1004.1 |
| 20260901210034 | 83 | 32 | 1.0 | 5.0 | 0.00 | 0.00 | 0.00 | 34 | 1004.2 |
| 20260901204532 | 81 | 164 | 1.0 | 3.0 | 0.00 | 0.00 | 0.00 | 34 | 1004.3 |
| 20260901203033 | 81 | 227 | 3.0 | 6.0 | 0.00 | 0.00 | 0.00 | 35 | 1004.4 |
| 20260901201528 | 81 | 173 | 1.0 | 5.0 | 0.00 | 0.00 | 0.00 | 36 | 1004.7 |
| 20260901200027 | 81 | 251 | 1.0 | 4.0 | 0.00 | 0.00 | 0.00 | 36 | 1004.8 |
| 20260901194526 | 81 | 343 | 0.0 | 7.0 | 0.00 | 0.00 | 0.00 | 36 | 1004.9 |
| 20260901193025 | 82 | 330 | 3.0 | 9.0 | 0.00 | 0.00 | 0.00 | 35 | 1004.9 |
| 20260901191533 | 81 | 331 | 3.0 | 10.0 | 0.00 | 0.00 | 0.00 | 36 | 1005.1 |
| 20260901190020 | 81 | 2 | 2.0 | 10.0 | 0.00 | 0.00 | 0.00 | 37 | 1005.3 |
| 20260901184518 | 81 | 244 | 1.0 | 11.0 | 0.00 | 0.00 | 0.00 | 37 | 1005.5 |
| 20260901183015 | 81 | 2 | 1.0 | 9.0 | 0.00 | 0.00 | 0.00 | 39 | 1005.7 |
| 20260901181512 | 79 | 12 | 2.0 | 10.0 | 0.00 | 0.00 | 0.00 | 41 | 1005.9 |
| 20260901180012 | 79 | 54 | 5.0 | 9.0 | 0.00 | 0.00 | 0.00 | 41 | 1006.1 |
| 20260901174508 | 79 | 353 | 7.0 | 11.0 | 0.00 | 0.00 | 0.00 | 41 | 1006.4 |
| 20260901173005 | 78 | 359 | 3.0 | 7.0 | 0.00 | 0.00 | 0.00 | 41 | 1006.7 |
| 20260901171507 | 78 | 36 | 0.0 | 5.0 | 0.00 | 0.00 | 0.00 | 42 | 1006.9 |
| 20260901170002 | 79 | 127 | 1.0 | 4.0 | 0.00 | 0.00 | 0.00 | 42 | 1007.0 |
| 20260901164615 | 79 | 173 | 3.0 | 7.0 | 0.00 | 0.00 | 0.00 | 41 | 1007.2 |
| 20260901163115 | 78 | 210 | 2.0 | 12.0 | 0.00 | 0.00 | 0.00 | 40 | 1007.3 |
| 20260901161601 | 78 | 221 | 3.0 | 12.0 | 0.00 | 0.00 | 0.00 | 41 | 1007.4 |
| 20260901160056 | 76 | 357 | 4.0 | 13.0 | 0.00 | 0.00 | 0.00 | 44 | 1007.5 |
| 20260901154555 | 75 | 149 | 0.0 | 4.0 | 0.00 | 0.00 | 0.00 | 45 | 1007.7 |
| 20260901153047 | 73 | 180 | 2.0 | 5.0 | 0.00 | 0.00 | 0.00 | 46 | 1007.9 |
| 20260901151545 | 72 | 126 | 0.0 | 1.0 | 0.00 | 0.00 | 0.00 | 49 | 1008.2 |
| 20260901150043 | 72 | 128 | 0.0 | 2.0 | 0.00 | 0.00 | 0.00 | 49 | 1008.4 |
| 20260901144542 | 71 | 88 | 0.0 | 4.0 | 0.00 | 0.00 | 0.00 | 50 | 1008.6 |
| 20260901143041 | 71 | 169 | 2.0 | 6.0 | 0.00 | 0.00 | 0.00 | 50 | 1008.9 |
| 20260901141541 | 69 | 178 | 3.0 | 6.0 | 0.00 | 0.00 | 0.00 | 53 | 1009.0 |
| 20260901140044 | 66 | 153 | 1.0 | 2.0 | 0.00 | 0.00 | 0.00 | 56 | 1008.9 |
| 20260901134540 | 66 | 168 | 1.0 | 3.0 | 0.00 | 0.00 | 0.00 | 56 | 1008.9 |
| 20260901133050 | 67 | 141 | 0.0 | 6.0 | 0.00 | 0.00 | 0.00 | 55 | 1008.8 |
| 20260901131542 | 67 | 189 | 3.0 | 5.0 | 0.00 | 0.00 | 0.00 | 55 | 1008.8 |
| 20260901130041 | 68 | 197 | 5.0 | 11.0 | 0.00 | 0.00 | 0.00 | 53 | 1008.7 |
| 20260901124539 | 68 | 180 | 5.0 | 12.0 | 0.00 | 0.00 | 0.00 | 52 | 1008.6 |
| 20260901123040 | 69 | 188 | 7.0 | 14.0 | 0.00 | 0.00 | 0.00 | 52 | 1008.5 |
| 20260901121545 | 68 | 174 | 3.0 | 12.0 | 0.00 | 0.00 | 0.00 | 53 | 1008.7 |
| 20260901120039 | 64 | 222 | 0.0 | 3.0 | 0.00 | 0.00 | 0.00 | 52 | 1008.7 |
| 20260901114537 | 65 | 37 | 0.0 | 1.0 | 0.00 | 0.00 | 0.00 | 48 | 1008.7 |
| 20260901113037 | 67 | 37 | 0.0 | 4.0 | 0.00 | 0.00 | 0.00 | 49 | 1008.9 |
| 20260901111536 | 69 | 123 | 0.0 | 5.0 | 0.00 | 0.00 | 0.00 | 46 | 1008.8 |
| 20260901110039 | 71 | 213 | 6.0 | 13.0 | 0.00 | 0.00 | 0.00 | 49 | 1008.7 |
| 20260901104540 | 71 | 215 | 8.0 | 15.0 | 0.00 | 0.00 | 0.00 | 49 | 1008.7 |
| 20260901103039 | 69 | 204 | 11.0 | 19.0 | 0.00 | 0.00 | 0.00 | 51 | 1008.8 |
| 20260901101528 | 61 | 234 | 0.0 | 1.0 | 0.00 | 0.00 | 0.00 | 30 | 1009.4 |
| 20260901100032 | 61 | 304 | 1.0 | 3.0 | 0.00 | 0.00 | 0.00 | 30 | 1009.4 |
| 20260901094526 | 62 | 282 | 1.0 | 4.0 | 0.00 | 0.00 | 0.00 | 29 | 1009.4 |
| 20260901093024 | 62 | 238 | 0.0 | 4.0 | 0.00 | 0.00 | 0.00 | 29 | 1009.5 |